| time (UTC) | temp F | wind direction | speed MPH | gust MPH | rain 1hr in | rain 24hr in | rain mn in | humidity % | barometer mb |
| 20260507060504 | 41 | 333 | 4.0 | 7.0 | 0.00 | 0.48 | 0.00 | 84 | 1011.9 |
| 20260507060015 | 41 | 325 | 2.0 | 7.0 | 0.00 | 0.48 | 0.00 | 85 | 1011.9 |
| 20260507055504 | 41 | 352 | 4.0 | 9.0 | 0.00 | 0.48 | 0.00 | 85 | 1011.9 |
| 20260507055004 | 41 | 331 | 4.0 | 9.0 | 0.00 | 0.48 | 0.00 | 85 | 1011.8 |
| 20260507054516 | 41 | 328 | 4.0 | 9.0 | 0.00 | 0.48 | 0.00 | 85 | 1011.7 |
| 20260507054005 | 41 | 332 | 5.0 | 8.0 | 0.00 | 0.48 | 0.00 | 86 | 1011.7 |
| 20260507053504 | 42 | 334 | 5.0 | 7.0 | 0.00 | 0.48 | 0.00 | 86 | 1011.6 |
| 20260507053022 | 42 | 333 | 3.0 | 7.0 | 0.00 | 0.48 | 0.00 | 86 | 1011.6 |
| 20260507052506 | 42 | 342 | 1.0 | 6.0 | 0.00 | 0.48 | 0.00 | 85 | 1011.7 |
| 20260507052006 | 42 | 330 | 2.0 | 11.0 | 0.00 | 0.48 | 0.00 | 85 | 1012.1 |
| 20260507051518 | 42 | 333 | 3.0 | 11.0 | 0.00 | 0.48 | 0.00 | 85 | 1012.1 |
| 20260507051006 | 42 | 334 | 5.0 | 11.0 | 0.00 | 0.48 | 0.00 | 85 | 1012.1 |
| 20260507050508 | 42 | 302 | 4.0 | 8.0 | 0.00 | 0.48 | 0.00 | 85 | 1012.0 |
| 20260507050017 | 42 | 309 | 4.0 | 8.0 | 0.00 | 0.48 | 0.00 | 85 | 1011.9 |
| 20260507045506 | 42 | 321 | 3.0 | 8.0 | 0.00 | 0.48 | 0.00 | 85 | 1011.7 |
| 20260507045005 | 42 | 344 | 2.0 | 7.0 | 0.00 | 0.48 | 0.00 | 86 | 1011.7 |
| 20260507044511 | 43 | 293 | 4.0 | 7.0 | 0.00 | 0.48 | 0.00 | 87 | 1011.7 |
| 20260507044008 | 42 | 1 | 3.0 | 7.0 | 0.00 | 0.48 | 0.00 | 88 | 1011.8 |
| 20260507043506 | 43 | 349 | 2.0 | 11.0 | 0.00 | 0.48 | 0.00 | 88 | 1011.6 |
| 20260507043017 | 43 | 333 | 3.0 | 11.0 | 0.00 | 0.48 | 0.00 | 88 | 1011.7 |
| 20260507042503 | 43 | 330 | 3.0 | 8.0 | 0.00 | 0.48 | 0.00 | 88 | 1011.7 |
| 20260507042008 | 43 | 273 | 3.0 | 10.0 | 0.00 | 0.48 | 0.00 | 88 | 1011.6 |
| 20260507041518 | 43 | 338 | 3.0 | 11.0 | 0.00 | 0.48 | 0.00 | 88 | 1011.5 |
| 20260507041005 | 43 | 353 | 5.0 | 14.0 | 0.00 | 0.48 | 0.00 | 88 | 1011.5 |
| 20260507040505 | 43 | 342 | 7.0 | 14.0 | 0.00 | 0.48 | 0.00 | 88 | 1011.3 |
| 20260507040020 | 43 | 330 | 8.0 | 14.0 | 0.00 | 0.48 | 0.00 | 88 | 1011.2 |
| 20260507035503 | 44 | 327 | 4.0 | 12.0 | 0.00 | 0.48 | 0.48 | 89 | 1011.0 |
| 20260507035008 | 44 | 300 | 4.0 | 9.0 | 0.00 | 0.48 | 0.48 | 89 | 1010.8 |
| 20260507034532 | 44 | 359 | 5.0 | 9.0 | 0.00 | 0.48 | 0.48 | 89 | 1010.5 |
| 20260507034004 | 44 | 341 | 5.0 | 9.0 | 0.00 | 0.48 | 0.48 | 89 | 1010.8 |
| 20260507033502 | 44 | 323 | 4.0 | 7.0 | 0.00 | 0.48 | 0.48 | 89 | 1010.8 |
| 20260507033020 | 44 | 342 | 3.0 | 7.0 | 0.00 | 0.48 | 0.48 | 90 | 1010.8 |
| 20260507032504 | 44 | 326 | 4.0 | 7.0 | 0.00 | 0.48 | 0.48 | 91 | 1010.9 |
| 20260507032006 | 44 | 294 | 2.0 | 6.0 | 0.00 | 0.48 | 0.48 | 93 | 1010.9 |
| 20260507031525 | 43 | 335 | 3.0 | 5.0 | 0.00 | 0.48 | 0.48 | 94 | 1010.9 |
| 20260507031012 | 43 | 352 | 2.0 | 3.0 | 0.00 | 0.48 | 0.48 | 94 | 1010.9 |
| 20260507030509 | 43 | 210 | 1.0 | 3.0 | 0.00 | 0.48 | 0.48 | 94 | 1011.0 |
| 20260507030024 | 43 | 197 | 2.0 | 3.0 | 0.00 | 0.48 | 0.48 | 94 | 1011.2 |
| 20260507025506 | 43 | 197 | 2.0 | 2.0 | 0.00 | 0.48 | 0.48 | 93 | 1011.0 |
| 20260507025011 | 43 | 197 | 1.0 | 3.0 | 0.00 | 0.48 | 0.48 | 93 | 1010.9 |
| 20260507024520 | 43 | 197 | 1.0 | 4.0 | 0.00 | 0.48 | 0.48 | 93 | 1010.9 |
| 20260507024006 | 43 | 204 | 1.0 | 4.0 | 0.00 | 0.48 | 0.48 | 93 | 1010.9 |
| 20260507023509 | 43 | 210 | 2.0 | 5.0 | 0.00 | 0.48 | 0.48 | 93 | 1011.0 |
| 20260507023021 | 43 | 225 | 3.0 | 5.0 | 0.00 | 0.48 | 0.48 | 93 | 1011.1 |
| 20260507022512 | 43 | 193 | 3.0 | 3.0 | 0.00 | 0.48 | 0.48 | 93 | 1011.1 |
| 20260507022004 | 43 | 196 | 1.0 | 2.0 | 0.00 | 0.48 | 0.48 | 93 | 1010.9 |
| 20260507021523 | 43 | 196 | 1.0 | 3.0 | 0.00 | 0.48 | 0.48 | 93 | 1011.0 |
| 20260507021012 | 43 | 196 | 0.0 | 3.0 | 0.00 | 0.48 | 0.48 | 93 | 1011.1 |
| 20260507020505 | 43 | 196 | 1.0 | 3.0 | 0.00 | 0.48 | 0.48 | 93 | 1011.1 |
| 20260507020021 | 43 | 190 | 2.0 | 2.0 | 0.00 | 0.48 | 0.48 | 93 | 1011.2 |
| 20260507015510 | 43 | 168 | 0.0 | 2.0 | 0.00 | 0.48 | 0.48 | 93 | 1011.2 |
| 20260507015009 | 43 | 168 | 0.0 | 2.0 | 0.00 | 0.48 | 0.48 | 93 | 1011.1 |
| 20260507014524 | 43 | 168 | 1.0 | 2.0 | 0.00 | 0.48 | 0.48 | 93 | 1011.3 |
| 20260507014007 | 43 | 168 | 0.0 | 2.0 | 0.00 | 0.48 | 0.48 | 93 | 1011.2 |
| 20260507013507 | 43 | 168 | 1.0 | 2.0 | 0.00 | 0.48 | 0.48 | 93 | 1011.4 |
| 20260507013016 | 43 | 168 | 1.0 | 2.0 | 0.00 | 0.48 | 0.48 | 93 | 1011.4 |
| 20260507012507 | 43 | 167 | 2.0 | 2.0 | 0.00 | 0.48 | 0.48 | 93 | 1011.4 |
| 20260507012007 | 43 | 136 | 1.0 | 2.0 | 0.00 | 0.48 | 0.48 | 93 | 1011.2 |
| 20260507011523 | 43 | 136 | 1.0 | 2.0 | 0.00 | 0.48 | 0.48 | 93 | 1011.2 |
| 20260507011006 | 43 | 134 | 0.0 | 0.0 | 0.00 | 0.48 | 0.48 | 93 | 1011.1 |
| 20260507010509 | 43 | 134 | 0.0 | 0.0 | 0.00 | 0.48 | 0.48 | 93 | 1011.2 |
| 20260507010031 | 43 | 134 | 0.0 | 0.0 | 0.00 | 0.48 | 0.48 | 93 | 1011.1 |
| 20260507005508 | 43 | 134 | 0.0 | 0.0 | 0.00 | 0.48 | 0.48 | 93 | 1011.1 |
| 20260507005004 | 43 | 134 | 0.0 | 0.0 | 0.00 | 0.48 | 0.48 | 93 | 1010.9 |
| 20260507004524 | 43 | 134 | 0.0 | 2.0 | 0.00 | 0.48 | 0.48 | 93 | 1010.8 |
| 20260507004007 | 43 | 134 | 0.0 | 2.0 | 0.00 | 0.48 | 0.48 | 93 | 1010.9 |
| 20260507003505 | 43 | 134 | 0.0 | 2.0 | 0.00 | 0.48 | 0.48 | 93 | 1010.9 |
| 20260507003024 | 43 | 134 | 0.0 | 2.0 | 0.00 | 0.48 | 0.48 | 93 | 1010.8 |
| 20260507002508 | 43 | 134 | 0.0 | 1.0 | 0.00 | 0.48 | 0.48 | 93 | 1010.9 |
| 20260507002012 | 43 | 134 | 1.0 | 3.0 | 0.00 | 0.48 | 0.48 | 93 | 1010.7 |
| 20260507001523 | 43 | 134 | 0.0 | 3.0 | 0.00 | 0.48 | 0.48 | 93 | 1010.8 |
| 20260507001007 | 43 | 153 | 0.0 | 2.0 | 0.00 | 0.48 | 0.48 | 93 | 1010.9 |
| 20260507000512 | 43 | 152 | 1.0 | 2.0 | 0.00 | 0.48 | 0.48 | 92 | 1010.9 |
| 20260507000016 | 44 | 84 | 0.0 | 2.0 | 0.00 | 0.48 | 0.48 | 92 | 1010.7 |
| 20260506235507 | 44 | 83 | 1.0 | 2.0 | 0.00 | 0.48 | 0.48 | 92 | 1010.7 |
| 20260506235009 | 44 | 14 | 0.0 | 2.0 | 0.00 | 0.48 | 0.48 | 92 | 1010.7 |
| 20260506234543 | 44 | 357 | 0.0 | 2.0 | 0.00 | 0.48 | 0.48 | 92 | 1010.7 |
| 20260506234010 | 44 | 350 | 0.0 | 1.0 | 0.00 | 0.48 | 0.48 | 92 | 1010.7 |
| 20260506233504 | 44 | 350 | 0.0 | 2.0 | 0.00 | 0.48 | 0.48 | 92 | 1010.7 |
| 20260506233012 | 44 | 349 | 0.0 | 2.0 | 0.00 | 0.48 | 0.48 | 92 | 1010.6 |
| 20260506232503 | 44 | 350 | 0.0 | 2.0 | 0.00 | 0.48 | 0.48 | 92 | 1010.4 |
| 20260506232000 | 44 | 350 | 0.0 | 0.0 | 0.00 | 0.49 | 0.48 | 92 | 1010.3 |
| 20260506231507 | 44 | 348 | 0.0 | 0.0 | 0.00 | 0.49 | 0.48 | 92 | 1010.3 |
| 20260506231004 | 44 | 348 | 0.0 | 0.0 | 0.00 | 0.49 | 0.48 | 92 | 1010.3 |
| 20260506230504 | 44 | 348 | 0.0 | 1.0 | 0.00 | 0.49 | 0.48 | 92 | 1010.1 |
| 20260506230004 | 44 | 348 | 0.0 | 2.0 | 0.00 | 0.49 | 0.48 | 92 | 1010.2 |
| 20260506225504 | 44 | 348 | 0.0 | 2.0 | 0.00 | 0.49 | 0.48 | 92 | 1010.3 |
| 20260506225007 | 43 | 348 | 0.0 | 2.0 | 0.00 | 0.49 | 0.48 | 92 | 1010.2 |
| 20260506224516 | 43 | 348 | 0.0 | 4.0 | 0.00 | 0.51 | 0.48 | 92 | 1009.9 |
| 20260506224004 | 43 | 348 | 0.0 | 4.0 | 0.00 | 0.52 | 0.48 | 92 | 1009.8 |
| 20260506223506 | 43 | 342 | 1.0 | 4.0 | 0.00 | 0.55 | 0.48 | 92 | 1009.8 |
| 20260506223022 | 43 | 344 | 2.0 | 6.0 | 0.00 | 0.58 | 0.48 | 92 | 1010.0 |
| 20260506222504 | 43 | 326 | 4.0 | 7.0 | 0.00 | 0.58 | 0.48 | 92 | 1009.8 |
| 20260506222008 | 43 | 340 | 4.0 | 7.0 | 0.00 | 0.61 | 0.48 | 92 | 1009.8 |
| 20260506221517 | 43 | 323 | 4.0 | 7.0 | 0.00 | 0.61 | 0.48 | 91 | 1010.0 |
| 20260506221007 | 43 | 359 | 4.0 | 8.0 | 0.00 | 0.61 | 0.48 | 92 | 1010.0 |
| 20260506220504 | 43 | 348 | 3.0 | 8.0 | 0.00 | 0.61 | 0.48 | 91 | 1010.1 |
| 20260506220029 | 43 | 330 | 4.0 | 6.0 | 0.00 | 0.61 | 0.48 | 91 | 1010.2 |
| 20260506215507 | 44 | 355 | 2.0 | 5.0 | 0.00 | 0.61 | 0.48 | 92 | 1010.3 |
| 20260506215001 | 44 | 355 | 1.0 | 5.0 | 0.00 | 0.61 | 0.48 | 92 | 1010.2 |
| 20260506214511 | 44 | 349 | 3.0 | 8.0 | 0.00 | 0.61 | 0.48 | 92 | 1009.8 |
| 20260506214004 | 43 | 336 | 3.0 | 8.0 | 0.00 | 0.61 | 0.48 | 92 | 1009.9 |
| 20260506213508 | 43 | 342 | 4.0 | 8.0 | 0.00 | 0.61 | 0.48 | 92 | 1010.0 |
| 20260506213008 | 43 | 326 | 4.0 | 8.0 | 0.00 | 0.61 | 0.48 | 92 | 1010.0 |
| 20260506212505 | 43 | 317 | 4.0 | 8.0 | 0.00 | 0.61 | 0.48 | 92 | 1009.8 |
| 20260506212009 | 43 | 356 | 4.0 | 8.0 | 0.00 | 0.61 | 0.48 | 92 | 1009.8 |
| 20260506211511 | 43 | 334 | 3.0 | 8.0 | 0.00 | 0.61 | 0.48 | 92 | 1009.9 |
| 20260506211004 | 43 | 342 | 4.0 | 8.0 | 0.00 | 0.61 | 0.48 | 93 | 1009.7 |
| 20260506210505 | 43 | 341 | 5.0 | 8.0 | 0.00 | 0.61 | 0.48 | 93 | 1009.7 |
| 20260506210023 | 43 | 330 | 5.0 | 10.0 | 0.00 | 0.61 | 0.48 | 93 | 1009.8 |
| 20260506205504 | 43 | 33 | 4.0 | 10.0 | 0.00 | 0.61 | 0.48 | 93 | 1009.8 |
| 20260506205006 | 43 | 338 | 6.0 | 10.0 | 0.00 | 0.61 | 0.48 | 93 | 1009.7 |
| 20260506204520 | 43 | 354 | 4.0 | 11.0 | 0.00 | 0.61 | 0.48 | 93 | 1009.5 |
| 20260506204004 | 43 | 329 | 5.0 | 11.0 | 0.00 | 0.61 | 0.48 | 93 | 1009.3 |
| 20260506203506 | 43 | 327 | 5.0 | 13.0 | 0.00 | 0.61 | 0.48 | 93 | 1009.3 |
| 20260506203019 | 43 | 4 | 4.0 | 13.0 | 0.00 | 0.61 | 0.48 | 93 | 1009.2 |
| 20260506202508 | 43 | 19 | 5.0 | 12.0 | 0.00 | 0.61 | 0.48 | 92 | 1009.1 |
| 20260506202003 | 43 | 1 | 7.0 | 12.0 | 0.00 | 0.61 | 0.48 | 93 | 1009.1 |
| 20260506201515 | 43 | 6 | 4.0 | 10.0 | 0.00 | 0.61 | 0.48 | 93 | 1009.1 |
| 20260506201005 | 43 | 359 | 5.0 | 14.0 | 0.00 | 0.61 | 0.48 | 93 | 1009.0 |
| 20260506200501 | 43 | 348 | 7.0 | 14.0 | 0.00 | 0.61 | 0.48 | 93 | 1008.9 |
| 20260506200011 | 43 | 339 | 9.0 | 13.0 | 0.00 | 0.61 | 0.48 | 93 | 1009.0 |
| 20260506195504 | 43 | 302 | 7.0 | 13.0 | 0.01 | 0.61 | 0.48 | 93 | 1009.0 |
| 20260506195011 | 43 | 4 | 5.0 | 11.0 | 0.01 | 0.61 | 0.48 | 93 | 1008.9 |
| 20260506194508 | 43 | 356 | 3.0 | 9.0 | 0.01 | 0.61 | 0.48 | 93 | 1008.7 |
| 20260506194011 | 43 | 348 | 4.0 | 12.0 | 0.01 | 0.61 | 0.48 | 93 | 1008.6 |
| 20260506193508 | 43 | 342 | 5.0 | 14.0 | 0.01 | 0.61 | 0.48 | 93 | 1008.6 |
| 20260506193027 | 44 | 347 | 6.0 | 14.0 | 0.01 | 0.61 | 0.48 | 92 | 1008.6 |
| 20260506192504 | 44 | 316 | 4.0 | 11.0 | 0.01 | 0.61 | 0.48 | 93 | 1008.6 |
| 20260506192007 | 44 | 329 | 2.0 | 11.0 | 0.01 | 0.61 | 0.48 | 93 | 1008.6 |
| 20260506191527 | 44 | 313 | 6.0 | 10.0 | 0.01 | 0.61 | 0.48 | 92 | 1008.5 |
| 20260506191004 | 44 | 14 | 4.0 | 10.0 | 0.01 | 0.62 | 0.48 | 92 | 1008.4 |
| 20260506190505 | 44 | 344 | 6.0 | 10.0 | 0.02 | 0.62 | 0.48 | 92 | 1008.5 |
| 20260506190022 | 44 | 300 | 5.0 | 11.0 | 0.02 | 0.62 | 0.48 | 92 | 1008.5 |
| 20260506185507 | 44 | 342 | 4.0 | 12.0 | 0.01 | 0.61 | 0.47 | 92 | 1008.5 |
| 20260506185003 | 44 | 319 | 7.0 | 12.0 | 0.01 | 0.61 | 0.47 | 91 | 1008.5 |
| 20260506184517 | 44 | 340 | 6.0 | 11.0 | 0.01 | 0.61 | 0.47 | 92 | 1008.6 |
| 20260506184007 | 44 | 303 | 7.0 | 13.0 | 0.01 | 0.61 | 0.47 | 92 | 1008.5 |
| 20260506183504 | 44 | 340 | 6.0 | 13.0 | 0.01 | 0.61 | 0.47 | 92 | 1008.5 |
| 20260506183015 | 44 | 313 | 7.0 | 11.0 | 0.01 | 0.61 | 0.47 | 91 | 1008.2 |
| 20260506182508 | 45 | 347 | 7.0 | 12.0 | 0.01 | 0.61 | 0.47 | 91 | 1008.1 |
| 20260506182014 | 45 | 308 | 7.0 | 12.0 | 0.01 | 0.61 | 0.47 | 90 | 1008.0 |
| 20260506181512 | 45 | 344 | 6.0 | 12.0 | 0.01 | 0.61 | 0.47 | 90 | 1008.0 |
| 20260506181008 | 45 | 348 | 6.0 | 10.0 | 0.02 | 0.61 | 0.47 | 91 | 1007.9 |
| 20260506180510 | 45 | 27 | 5.0 | 10.0 | 0.01 | 0.60 | 0.46 | 91 | 1007.9 |
| 20260506180007 | 45 | 355 | 4.0 | 9.0 | 0.01 | 0.60 | 0.46 | 91 | 1008.0 |
| 20260506175505 | 45 | 335 | 4.0 | 8.0 | 0.01 | 0.60 | 0.46 | 91 | 1007.8 |
| 20260506175009 | 45 | 354 | 4.0 | 8.0 | 0.01 | 0.60 | 0.46 | 92 | 1007.7 |
| 20260506174527 | 44 | 283 | 2.0 | 10.0 | 0.01 | 0.60 | 0.46 | 91 | 1007.6 |
| 20260506174003 | 44 | 316 | 4.0 | 10.0 | 0.01 | 0.60 | 0.46 | 92 | 1007.6 |
| 20260506173507 | 44 | 335 | 5.0 | 9.0 | 0.01 | 0.60 | 0.46 | 91 | 1007.6 |
| 20260506173024 | 44 | 342 | 4.0 | 10.0 | 0.01 | 0.60 | 0.46 | 92 | 1007.5 |
| 20260506172503 | 44 | 331 | 3.0 | 10.0 | 0.01 | 0.60 | 0.46 | 92 | 1007.6 |
| 20260506172004 | 44 | 319 | 5.0 | 10.0 | 0.02 | 0.60 | 0.46 | 92 | 1007.5 |
| 20260506171525 | 44 | 355 | 4.0 | 8.0 | 0.02 | 0.60 | 0.46 | 92 | 1007.5 |
| 20260506171013 | 44 | 335 | 6.0 | 9.0 | 0.01 | 0.58 | 0.45 | 91 | 1007.5 |
| 20260506170502 | 44 | 314 | 4.0 | 10.0 | 0.01 | 0.58 | 0.45 | 92 | 1007.5 |
| 20260506170021 | 44 | 360 | 5.0 | 10.0 | 0.01 | 0.58 | 0.45 | 92 | 1007.5 |
| 20260506165507 | 44 | 345 | 5.0 | 10.0 | 0.01 | 0.58 | 0.45 | 92 | 1007.5 |
| 20260506165010 | 44 | 314 | 4.0 | 8.0 | 0.01 | 0.58 | 0.45 | 92 | 1007.5 |
| 20260506164516 | 44 | 333 | 3.0 | 9.0 | 0.01 | 0.58 | 0.45 | 92 | 1007.4 |
| 20260506164008 | 44 | 335 | 4.0 | 9.0 | 0.01 | 0.58 | 0.45 | 92 | 1007.4 |
| 20260506163512 | 44 | 328 | 3.0 | 8.0 | 0.01 | 0.58 | 0.45 | 92 | 1007.5 |
| 20260506163012 | 44 | 330 | 4.0 | 8.0 | 0.01 | 0.58 | 0.45 | 92 | 1007.5 |
| 20260506162506 | 44 | 354 | 3.0 | 7.0 | 0.02 | 0.58 | 0.45 | 92 | 1007.4 |
| 20260506162008 | 44 | 328 | 5.0 | 8.0 | 0.01 | 0.58 | 0.44 | 92 | 1007.5 |
| 20260506161530 | 44 | 351 | 4.0 | 8.0 | 0.02 | 0.58 | 0.44 | 92 | 1007.4 |
| 20260506161003 | 44 | 326 | 3.0 | 8.0 | 0.02 | 0.58 | 0.44 | 92 | 1007.4 |
| 20260506160511 | 44 | 328 | 4.0 | 7.0 | 0.03 | 0.58 | 0.44 | 92 | 1007.3 |
| 20260506160036 | 44 | 333 | 3.0 | 6.0 | 0.03 | 0.58 | 0.44 | 92 | 1007.3 |
| 20260506155503 | 44 | 338 | 3.0 | 10.0 | 0.03 | 0.58 | 0.44 | 92 | 1007.3 |
| 20260506155009 | 44 | 356 | 5.0 | 10.0 | 0.03 | 0.58 | 0.44 | 91 | 1007.3 |
| 20260506154526 | 44 | 311 | 4.0 | 8.0 | 0.03 | 0.58 | 0.44 | 92 | 1007.3 |
| 20260506154010 | 44 | 358 | 4.0 | 8.0 | 0.03 | 0.58 | 0.44 | 92 | 1007.3 |
| 20260506153504 | 44 | 307 | 4.0 | 8.0 | 0.04 | 0.58 | 0.44 | 92 | 1007.3 |
| 20260506153022 | 44 | 304 | 3.0 | 8.0 | 0.04 | 0.58 | 0.44 | 92 | 1007.4 |
| 20260506152511 | 43 | 342 | 3.0 | 6.0 | 0.03 | 0.57 | 0.43 | 92 | 1007.4 |
| 20260506152003 | 43 | 354 | 1.0 | 6.0 | 0.04 | 0.57 | 0.43 | 92 | 1007.4 |
| 20260506151520 | 43 | 335 | 2.0 | 6.0 | 0.03 | 0.56 | 0.42 | 92 | 1007.3 |
| 20260506151006 | 43 | 338 | 4.0 | 6.0 | 0.03 | 0.56 | 0.42 | 92 | 1007.4 |
| 20260506150510 | 43 | 328 | 2.0 | 4.0 | 0.02 | 0.55 | 0.41 | 93 | 1007.3 |
| 20260506150016 | 43 | 350 | 2.0 | 6.0 | 0.03 | 0.55 | 0.41 | 92 | 1007.2 |
| 20260506145508 | 43 | 356 | 3.0 | 7.0 | 0.03 | 0.55 | 0.41 | 92 | 1007.2 |
| 20260506145011 | 43 | 328 | 4.0 | 7.0 | 0.03 | 0.55 | 0.41 | 92 | 1007.1 |
| 20260506144512 | 43 | 318 | 3.0 | 7.0 | 0.03 | 0.55 | 0.41 | 92 | 1007.2 |
| 20260506144013 | 43 | 331 | 4.0 | 9.0 | 0.03 | 0.55 | 0.41 | 92 | 1007.1 |
| 20260506143516 | 43 | 328 | 5.0 | 9.0 | 0.02 | 0.54 | 0.40 | 92 | 1007.0 |
| 20260506143034 | 43 | 342 | 3.0 | 8.0 | 0.03 | 0.54 | 0.40 | 92 | 1007.2 |
| 20260506142504 | 43 | 349 | 3.0 | 8.0 | 0.03 | 0.54 | 0.40 | 92 | 1007.1 |
| 20260506142011 | 43 | 352 | 4.0 | 8.0 | 0.02 | 0.52 | 0.39 | 92 | 1006.9 |
| 20260506141528 | 43 | 332 | 4.0 | 7.0 | 0.03 | 0.52 | 0.39 | 92 | 1006.8 |
| 20260506141012 | 43 | 354 | 3.0 | 9.0 | 0.03 | 0.52 | 0.39 | 92 | 1006.9 |
| 20260506140507 | 43 | 345 | 5.0 | 9.0 | 0.04 | 0.52 | 0.39 | 92 | 1006.9 |
| 20260506140025 | 43 | 345 | 4.0 | 7.0 | 0.03 | 0.52 | 0.38 | 92 | 1007.1 |
| 20260506135510 | 43 | 263 | 3.0 | 6.0 | 0.04 | 0.52 | 0.38 | 92 | 1007.0 |
| 20260506135007 | 43 | 337 | 4.0 | 9.0 | 0.05 | 0.52 | 0.38 | 92 | 1006.9 |
| 20260506134525 | 43 | 325 | 4.0 | 9.0 | 0.06 | 0.52 | 0.38 | 91 | 1007.1 |
| 20260506134007 | 44 | 331 | 4.0 | 7.0 | 0.09 | 0.52 | 0.38 | 91 | 1007.1 |
| 20260506133512 | 44 | 322 | 3.0 | 6.0 | 0.10 | 0.52 | 0.38 | 92 | 1007.1 |
| 20260506133020 | 44 | 303 | 3.0 | 6.0 | 0.09 | 0.51 | 0.37 | 92 | 1007.1 |
| 20260506132509 | 44 | 328 | 4.0 | 6.0 | 0.11 | 0.51 | 0.37 | 92 | 1007.1 |
| 20260506132012 | 44 | 354 | 4.0 | 6.0 | 0.11 | 0.51 | 0.37 | 92 | 1007.1 |
| 20260506131536 | 44 | 328 | 3.0 | 5.0 | 0.11 | 0.50 | 0.36 | 92 | 1007.2 |
| 20260506131007 | 44 | 338 | 2.0 | 5.0 | 0.11 | 0.50 | 0.36 | 92 | 1007.2 |
| 20260506130509 | 44 | 346 | 2.0 | 5.0 | 0.11 | 0.49 | 0.35 | 92 | 1007.2 |
| 20260506130037 | 44 | 339 | 1.0 | 5.0 | 0.12 | 0.49 | 0.35 | 92 | 1007.1 |
| 20260506125507 | 44 | 328 | 2.0 | 6.0 | 0.12 | 0.48 | 0.34 | 92 | 1007.1 |
| 20260506125008 | 44 | 331 | 1.0 | 6.0 | 0.11 | 0.47 | 0.33 | 92 | 1007.1 |
| 20260506124527 | 44 | 283 | 4.0 | 6.0 | 0.11 | 0.46 | 0.32 | 92 | 1007.2 |
| 20260506124003 | 44 | 307 | 2.0 | 7.0 | 0.08 | 0.43 | 0.29 | 92 | 1007.2 |
| 20260506123508 | 44 | 329 | 4.0 | 7.0 | 0.08 | 0.42 | 0.28 | 92 | 1007.1 |
| 20260506123028 | 44 | 331 | 4.0 | 7.0 | 0.08 | 0.42 | 0.28 | 92 | 1007.1 |
| 20260506122509 | 44 | 311 | 4.0 | 7.0 | 0.06 | 0.40 | 0.26 | 92 | 1007.0 |
| 20260506122007 | 44 | 293 | 4.0 | 9.0 | 0.07 | 0.40 | 0.26 | 92 | 1007.0 |
| 20260506121527 | 44 | 298 | 4.0 | 9.0 | 0.07 | 0.39 | 0.25 | 92 | 1006.9 |
| 20260506121015 | 44 | 329 | 4.0 | 8.0 | 0.08 | 0.39 | 0.25 | 92 | 1006.9 |
| 20260506120514 | 45 | 334 | 4.0 | 7.0 | 0.07 | 0.38 | 0.24 | 91 | 1006.6 |
| 20260506120022 | 45 | 298 | 2.0 | 8.0 | 0.07 | 0.37 | 0.23 | 92 | 1006.7 |
| 20260506115507 | 45 | 285 | 4.0 | 8.0 | 0.06 | 0.36 | 0.22 | 92 | 1006.6 |
| 20260506115011 | 46 | 336 | 3.0 | 7.0 | 0.07 | 0.36 | 0.22 | 92 | 1006.8 |
| 20260506114522 | 46 | 340 | 0.0 | 5.0 | 0.07 | 0.35 | 0.21 | 94 | 1006.7 |
| 20260506114003 | 47 | 337 | 3.0 | 6.0 | 0.08 | 0.35 | 0.21 | 94 | 1006.6 |
| 20260506113504 | 47 | 41 | 1.0 | 6.0 | 0.08 | 0.34 | 0.20 | 94 | 1006.5 |
| 20260506113015 | 47 | 20 | 0.0 | 3.0 | 0.09 | 0.34 | 0.20 | 94 | 1006.4 |
| 20260506112505 | 47 | 239 | 2.0 | 3.0 | 0.09 | 0.34 | 0.20 | 94 | 1006.9 |
| 20260506112003 | 46 | 172 | 0.0 | 2.0 | 0.08 | 0.33 | 0.19 | 94 | 1006.5 |
| 20260506111513 | 46 | 173 | 0.0 | 2.0 | 0.08 | 0.32 | 0.18 | 94 | 1006.7 |
| 20260506111007 | 46 | 167 | 0.0 | 2.0 | 0.07 | 0.31 | 0.17 | 94 | 1006.7 |
| 20260506110506 | 46 | 167 | 0.0 | 2.0 | 0.07 | 0.31 | 0.17 | 94 | 1006.6 |
| 20260506110011 | 46 | 167 | 1.0 | 2.0 | 0.07 | 0.30 | 0.16 | 94 | 1006.6 |
| 20260506105507 | 46 | 167 | 1.0 | 2.0 | 0.08 | 0.30 | 0.16 | 93 | 1006.6 |
| 20260506105007 | 46 | 167 | 1.0 | 2.0 | 0.08 | 0.29 | 0.15 | 94 | 1006.5 |
| 20260506104503 | 46 | 158 | 0.0 | 2.0 | 0.08 | 0.28 | 0.14 | 93 | 1006.6 |
| 20260506104002 | 46 | 150 | 1.0 | 2.0 | 0.08 | 0.27 | 0.13 | 93 | 1006.6 |
| 20260506103506 | 46 | 143 | 1.0 | 2.0 | 0.07 | 0.26 | 0.12 | 93 | 1006.5 |
| 20260506103004 | 46 | 217 | 0.0 | 3.0 | 0.07 | 0.25 | 0.11 | 93 | 1006.5 |
| 20260506102505 | 46 | 220 | 2.0 | 9.0 | 0.07 | 0.25 | 0.11 | 93 | 1006.6 |
| 20260506102006 | 46 | 116 | 4.0 | 9.0 | 0.08 | 0.25 | 0.11 | 93 | 1006.7 |
| 20260506101523 | 46 | 100 | 2.0 | 3.0 | 0.07 | 0.24 | 0.10 | 93 | 1006.7 |
| 20260506101003 | 46 | 114 | 2.0 | 2.0 | 0.07 | 0.24 | 0.10 | 93 | 1006.7 |
| 20260506100508 | 46 | 297 | 0.0 | 1.0 | 0.08 | 0.24 | 0.10 | 93 | 1006.8 |
| 20260506100025 | 46 | 297 | 0.0 | 1.0 | 0.07 | 0.23 | 0.09 | 93 | 1006.8 |
| 20260506095507 | 46 | 304 | 0.0 | 5.0 | 0.06 | 0.22 | 0.08 | 93 | 1006.9 |
| 20260506095005 | 46 | 296 | 2.0 | 6.0 | 0.06 | 0.21 | 0.07 | 93 | 1006.9 |
| 20260506094518 | 46 | 1 | 4.0 | 6.0 | 0.05 | 0.20 | 0.06 | 93 | 1006.6 |
| 20260506094009 | 46 | 350 | 3.0 | 7.0 | 0.04 | 0.19 | 0.05 | 93 | 1006.7 |
| 20260506093503 | 46 | 333 | 4.0 | 7.0 | 0.04 | 0.19 | 0.05 | 93 | 1006.6 |
| 20260506093014 | 46 | 345 | 2.0 | 7.0 | 0.03 | 0.18 | 0.04 | 92 | 1006.9 |
| 20260506092510 | 46 | 328 | 5.0 | 7.0 | 0.03 | 0.18 | 0.04 | 92 | 1007.1 |
| 20260506092001 | 46 | 354 | 3.0 | 8.0 | 0.03 | 0.17 | 0.03 | 92 | 1007.1 |
| 20260506091511 | 46 | 343 | 4.0 | 8.0 | 0.03 | 0.17 | 0.03 | 92 | 1007.2 |
| 20260506091006 | 46 | 328 | 4.0 | 8.0 | 0.03 | 0.17 | 0.03 | 92 | 1007.5 |
| 20260506090505 | 46 | 333 | 4.0 | 7.0 | 0.02 | 0.16 | 0.02 | 92 | 1007.5 |
| 20260506090005 | 46 | 340 | 3.0 | 8.0 | 0.02 | 0.16 | 0.02 | 93 | 1007.5 |
| 20260506085508 | 46 | 360 | 5.0 | 9.0 | 0.02 | 0.16 | 0.02 | 93 | 1007.4 |
| 20260506085006 | 46 | 354 | 5.0 | 9.0 | 0.01 | 0.15 | 0.01 | 93 | 1007.5 |
| 20260506084525 | 46 | 315 | 5.0 | 7.0 | 0.01 | 0.15 | 0.01 | 93 | 1007.5 |
| 20260506084007 | 46 | 359 | 2.0 | 5.0 | 0.01 | 0.15 | 0.01 | 93 | 1007.3 |
| 20260506083508 | 46 | 340 | 0.0 | 2.0 | 0.01 | 0.15 | 0.01 | 93 | 1007.2 |
| 20260506083023 | 46 | 340 | 0.0 | 2.0 | 0.01 | 0.15 | 0.01 | 93 | 1007.2 |
| 20260506082503 | 46 | 338 | 1.0 | 2.0 | 0.01 | 0.15 | 0.01 | 93 | 1007.1 |
| 20260506082003 | 46 | 9 | 1.0 | 2.0 | 0.00 | 0.14 | 0.00 | 93 | 1007.0 |
| 20260506081526 | 46 | 8 | 0.0 | 2.0 | 0.00 | 0.14 | 0.00 | 93 | 1007.0 |
| 20260506081006 | 46 | 323 | 0.0 | 2.0 | 0.00 | 0.14 | 0.00 | 93 | 1007.1 |
| 20260506080503 | 46 | 245 | 1.0 | 2.0 | 0.00 | 0.14 | 0.00 | 93 | 1007.2 |
| 20260506073508 | 46 | 224 | 3.0 | 4.0 | 0.00 | 0.14 | 0.00 | 93 | 1007.0 |
| 20260506073009 | 46 | 204 | 3.0 | 4.0 | 0.00 | 0.14 | 0.00 | 93 | 1007.1 |
| 20260506072508 | 46 | 193 | 2.0 | 6.0 | 0.00 | 0.14 | 0.00 | 93 | 1007.2 |
| 20260506072011 | 46 | 214 | 2.0 | 6.0 | 0.00 | 0.14 | 0.00 | 93 | 1007.2 |
| 20260506071511 | 45 | 82 | 2.0 | 5.0 | 0.00 | 0.14 | 0.00 | 93 | 1006.9 |
| 20260506071007 | 45 | 238 | 2.0 | 5.0 | 0.00 | 0.14 | 0.00 | 93 | 1007.6 |
| 20260506070509 | 45 | 235 | 0.0 | 4.0 | 0.00 | 0.14 | 0.00 | 93 | 1007.3 |
| 20260506062516 | 46 | 359 | 1.0 | 2.0 | 0.00 | 0.14 | 0.00 | 91 | 1008.2 |
| 20260506062005 | 46 | 347 | 0.0 | 2.0 | 0.00 | 0.14 | 0.00 | 90 | 1008.4 |
| 20260506061518 | 46 | 347 | 0.0 | 2.0 | 0.00 | 0.14 | 0.00 | 90 | 1008.5 |
| 20260506061005 | 46 | 347 | 1.0 | 3.0 | 0.00 | 0.14 | 0.00 | 90 | 1008.5 |